Location: Bouchavesnes-Bergen
(49.9859°N, 2.9203°E)
Time: 04:57:49
(UTC+00:00)

GEOS 3 Rocket - Pass Details

Date: 09 March 2021
Orbit: 773 x 846 km, 115.0° (Epoch: 11 April)

Event Time Altitude Azimuth Distance (km) Brightness Sun altitude
Rises 03:06:28 0° 40° (NE) 3,407 7.9 -29.8°
Reaches altitude 10° 03:08:49 10° 38° (NE) 2,463 6.9 -29.5°
Enters shadow 03:13:38 63° 349° (N) 931 3.9 -28.8°
